This is the latest recevied weather packets stored in our database for station/object KI4NG. If no packets are shown the sender has not sent any weather packets the latest 10 day(s).
| Time | Temp. | Humidity | Pressure | Rain* | Wind** | Luminosity | Snow |
|---|---|---|---|---|---|---|---|
| 1778077405 | 16.67° C | 99% | 1012.5 hPa | 0 mm | - | 72 W/m² | - |
| 1778077104 | 16.67° C | 99% | 1012.5 hPa | 1.27 mm | - | 80 W/m² | - |
| 1778076801 | 16.67° C | 99% | 1012.5 hPa | 1.27 mm | - | 112 W/m² | - |
| 1778076499 | 16.67° C | 99% | 1012.8 hPa | 0 mm | - | 57 W/m² | - |
| 1778076195 | 16.67° C | 99% | 1012.4 hPa | 0 mm | - | 92 W/m² | - |
| 1778075893 | 16.67° C | 99% | 1012.6 hPa | 1.78 mm | - | 60 W/m² | - |
| 1778075589 | 16.67° C | 99% | 1012.3 hPa | 1.78 mm | - | 68 W/m² | - |
| 1778075286 | 16.67° C | 99% | 1012.3 hPa | 0 mm | - | 55 W/m² | - |
| 1778074982 | 16.67° C | 99% | 1012 hPa | 3.05 mm | - | 35 W/m² | - |
| 1778074679 | 16.67° C | 99% | 1012.3 hPa | 3.05 mm | - | 68 W/m² | - |
| 1778074376 | 16.67° C | 99% | 1012 hPa | 1.78 mm | - | 54 W/m² | - |
| 1778074073 | 16.67° C | 99% | 1011.6 hPa | 3.05 mm | - | 39 W/m² | - |
| 1778073770 | 16.67° C | 99% | 1011.8 hPa | 1.27 mm | - | 49 W/m² | - |
| 1778073468 | 16.67° C | 99% | 1011.6 hPa | 0 mm | - | 27 W/m² | - |
| 1778073163 | 16.67° C | 99% | 1011.6 hPa | 0 mm | - | 35 W/m² | - |
| 1778072861 | 16.67° C | 99% | 1011.5 hPa | 0 mm | - | 58 W/m² | - |
| 1778072557 | 16.67° C | 99% | 1011.4 hPa | 0 mm | - | 48 W/m² | - |
| 1778072256 | 16.67° C | 99% | 1011.2 hPa | 0 mm | - | 57 W/m² | - |
| 1778071953 | 16.11° C | 99% | 1011.2 hPa | 0 mm | - | 46 W/m² | - |
| 1778071651 | 16.11° C | 99% | 1011.1 hPa | 1.78 mm | - | 40 W/m² | - |
| 1778071349 | 16.11° C | 99% | 1011.3 hPa | 1.78 mm | - | 15 W/m² | - |
| 1778071046 | 16.11° C | 99% | 1011.2 hPa | 1.78 mm | - | 45 W/m² | - |
| 1778070745 | 16.11° C | 99% | 1011.4 hPa | 0 mm | - | 11 W/m² | - |
| 1778070441 | 16.11° C | 99% | 1011.1 hPa | 0 mm | - | 13 W/m² | - |
| 1778070138 | 16.11° C | 99% | 1011.2 hPa | 0 mm | - | 11 W/m² | - |
* Rain latest hour (hover to see other rain measurements)
** Current wind speed in m/s (hover to see current wind gust speed)